Location: Unspecified
(48.1170°N, 0.0000°E)
Time: 23:21:40
(UTC+00:00)

JY1SAT - Pass Details

Date: 25 September 2019
Orbit: 572 x 591 km, 97.7° (Epoch: 15 October)

Event Time Altitude Azimuth Distance (km) Brightness Sun altitude
Exits shadow 21:19:15 14° 2° (N) 1,665 ? -32.6°
Drops below altitude 10° 21:19:52 10° 359° (N) 1,902 ? -32.6°
Sets 21:22:06 0° 353° (N) 2,809 ? -32.9°
